Weather History for PAOM - October, 2012

Change the Weather History Date:

Monday, October 22, 2012

  Actual Average Record
Temperature  
Mean Temperature 33 °F 26 °F  
Max Temperature 34 °F 32 °F 48 °F (1926)
Min Temperature 32 °F 20 °F 3 °F (1967)
Degree Days  
Heating Degree Days 32 39  
Month to date heating degree days 700 754  
Since 1 July heating degree days 2354 2284  
Cooling Degree Days 0    
Month to date cooling degree days 0  
Year to date cooling degree days 0  
Moisture  
Dew Point 34 °F    
Average Humidity 0    
Maximum Humidity 0    
Minimum Humidity 0    
Precipitation  
Precipitation 0.05 in 0.05 in 0.83 in (1944)
Month to date precipitation 1.36 1.22  
Year to date precipitation 18.11 14.12  
Snow  
Snow 0.20 in 0.20 in 3.50 in (1989)
Month to date snowfall 2.1 2.5  
Since 1 July snowfall 2.4 3.1  
Since 1 September snowfall 2.4 3.1  
Snow Depth 1.00 in    
Sea Level Pressure  
Sea Level Pressure 30.33 in    
Wind  
Wind Speed 1 mph (ESE)    
Max Wind Speed 8 mph    
Max Gust Speed 9 mph    
Visibility 1 miles    
Events Fog , Rain , Snow    
T = Trace of Precipitation, MM = Missing Value Source: NWS Daily Summary

Daily Weather History Graph

Daily Weather History Graph

Search for Another Location

Airport or City:

Trip Planner

Search our weather history database for the weather conditions in past years. The results will help you decide how hot, cold, wet, or windy it might be!

Date:

Astronomy

Oct. 22, 2012 Rise Set
Actual Time 10:17 AM AKDT 7:13 PM AKDT
Civil Twilight 9:26 AM AKDT 8:04 PM AKDT
Nautical Twilight 8:29 AM AKDT 9:00 PM AKDT
Astronomical Twilight 7:33 AM AKDT 9:56 PM AKDT
Moon 5:37 PM AKDT (10/22) 12:51 AM AKDT (10/22)
Length of Visible Light 10h 38m
Length of Day
8h 56m
First Quarter, 58% of the Moon is Illuminated
Oct 22
First Quarter
Oct 29
Full
Nov 6
Last Quarter
Nov 13
New
Nov 20
First Quarter

Hourly Weather History & Observations

Time (AKDT) Temp. Windchill Dew Point Humidity Pressure Visibility Wind Dir Wind Speed Gust Speed Precip Events Conditions
12:07 AM 33.8 °F 28.6 °F 33.8 °F 100% 30.14 in 0.5 mi ESE 5.8 mph - N/A Fog Fog
12:22 AM 33.8 °F 27.7 °F 33.8 °F 100% 30.15 in 0.5 mi East 6.9 mph - 0.01 in Fog , Rain Rain
12:25 AM 33.8 °F 27.7 °F 33.8 °F 100% 30.15 in 1.0 mi East 6.9 mph - 0.02 in Rain Light Rain
12:37 AM 33.8 °F 29.6 °F 33.8 °F 100% 30.15 in 2.5 mi East 4.6 mph - 0.02 in Rain Light Rain
12:53 AM 33.1 °F 27.7 °F 33.1 °F 100% 30.15 in 1.8 mi SE 5.8 mph - 0.02 in   Overcast
1:11 AM 33.8 °F 30.8 °F 33.8 °F 100% 30.15 in 0.8 mi SE 3.5 mph - N/A   Mist
1:20 AM 33.8 °F 28.6 °F 33.8 °F 100% 30.15 in 0.5 mi SE 5.8 mph - N/A Fog Fog
1:50 AM 33.8 °F 30.8 °F 33.8 °F 100% 30.16 in 0.5 mi East 3.5 mph - 0.00 in Fog Fog
1:53 AM 33.1 °F 27.7 °F 33.1 °F 100% 30.17 in 0.5 mi East 5.8 mph - 0.00 in Fog Fog
2:39 AM 33.8 °F 30.8 °F 33.8 °F 100% 30.17 in 0.5 mi East 3.5 mph - N/A Fog Fog
2:53 AM 33.1 °F 27.7 °F 33.1 °F 100% 30.18 in 0.5 mi East 5.8 mph - N/A Fog Fog
3:36 AM 33.8 °F 29.6 °F 33.8 °F 100% 30.18 in 0.8 mi East 4.6 mph - 0.01 in Rain Rain
3:43 AM 33.8 °F 29.6 °F 33.8 °F 100% 30.18 in 1.5 mi East 4.6 mph - 0.03 in Rain Light Rain
3:50 AM 33.8 °F 28.6 °F 33.8 °F 100% 30.18 in 3.0 mi East 5.8 mph - 0.03 in Rain Light Rain
3:53 AM 33.1 °F 27.7 °F 33.1 °F 100% 30.19 in 4.0 mi East 5.8 mph - 0.03 in Rain Light Rain
4:08 AM 33.8 °F 30.8 °F 33.8 °F 100% 30.19 in 8.0 mi ESE 3.5 mph - 0.00 in   Overcast
4:26 AM 33.8 °F 29.6 °F 33.8 °F 100% 30.19 in 2.5 mi East 4.6 mph - 0.00 in   Overcast
4:45 AM 33.8 °F - 33.8 °F 100% 30.20 in 1.8 mi Calm Calm - 0.00 in   Overcast
4:53 AM 33.1 °F - 33.1 °F 100% 30.21 in 2.0 mi Calm Calm - 0.00 in   Overcast
5:03 AM 33.8 °F 29.6 °F 33.8 °F 100% 30.20 in 1.5 mi East 4.6 mph - N/A Snow Light Snow
5:15 AM 33.8 °F 30.8 °F 33.8 °F 100% 30.21 in 2.5 mi East 3.5 mph - 0.01 in   Overcast
5:40 AM 33.8 °F 29.6 °F 33.8 °F 100% 30.22 in 4.0 mi East 4.6 mph - 0.01 in   Overcast
5:53 AM 33.1 °F 27.7 °F 33.1 °F 100% 30.23 in 5.0 mi East 5.8 mph - 0.01 in Rain Light Rain
6:53 AM 33.1 °F 30.0 °F 33.1 °F 100% 30.25 in 10.0 mi East 3.5 mph - 0.00 in   Overcast
7:53 AM 33.1 °F - 33.1 °F 100% 30.27 in 3.0 mi Calm Calm - N/A   Overcast
7:58 AM 33.8 °F - 33.8 °F 100% 30.26 in 1.8 mi Calm Calm - N/A   Overcast
8:11 AM 33.8 °F - 33.8 °F 100% 30.27 in 0.8 mi Calm Calm - N/A   Mist
8:53 AM 33.1 °F - 33.1 °F 100% 30.29 in 0.8 mi Calm Calm - N/A   Overcast
9:33 AM 33.8 °F 29.6 °F 33.8 °F 100% 30.30 in 5.0 mi WSW 4.6 mph - 0.01 in   Overcast
9:41 AM 33.8 °F 28.6 °F 33.8 °F 100% 30.30 in 6.0 mi WSW 5.8 mph - 0.01 in   Overcast
9:49 AM 33.8 °F 27.7 °F 33.8 °F 100% 30.30 in 0.8 mi WSW 6.9 mph - 0.01 in   Overcast
9:53 AM 33.1 °F 26.9 °F 33.1 °F 100% 30.30 in 0.8 mi WSW 6.9 mph - 0.01 in   Overcast
10:02 AM 33.8 °F 28.6 °F 33.8 °F 100% 30.31 in 0.5 mi WSW 5.8 mph - N/A Fog Fog
10:12 AM 33.8 °F 28.6 °F 33.8 °F 100% 30.32 in 0.2 mi WSW 5.8 mph - N/A Fog Fog
10:41 AM 33.8 °F 28.6 °F 33.8 °F 100% 30.33 in 0.2 mi West 5.8 mph - N/A Fog Fog
10:53 AM 33.1 °F - 33.1 °F 100% 30.33 in 0.8 mi Calm Calm - N/A   Overcast
10:57 AM 33.8 °F 29.6 °F 33.8 °F 100% 30.33 in 1.0 mi West 4.6 mph - N/A   Overcast
11:28 AM 33.8 °F - 33.8 °F 100% 30.34 in 2.0 mi Calm Calm - N/A   Overcast
11:39 AM 33.8 °F - 33.8 °F 100% 30.34 in 5.0 mi Calm Calm - N/A   Overcast
11:48 AM 33.8 °F 30.8 °F 33.8 °F 100% 30.35 in 2.5 mi SSW 3.5 mph - N/A   Overcast
11:53 AM 33.8 °F - 33.8 °F 100% 30.35 in 1.0 mi Calm Calm - N/A   Overcast
12:09 PM 33.8 °F - 33.8 °F 100% 30.36 in 1.0 mi Calm Calm - N/A   Mist
12:16 PM 33.8 °F - 33.8 °F 100% 30.36 in 0.2 mi Calm Calm - N/A Fog Fog
12:53 PM 33.1 °F - 33.1 °F 100% 30.37 in 0.2 mi Calm Calm - N/A Fog Fog
1:53 PM 33.1 °F - 33.1 °F 100% 30.40 in 0.2 mi Calm Calm - N/A Fog Fog
2:29 PM 33.8 °F - 33.8 °F 100% 30.40 in 0.2 mi Calm Calm - N/A Fog Fog
2:39 PM 33.8 °F - 33.8 °F 100% 30.40 in 0.5 mi Calm Calm - N/A Fog Fog
2:53 PM 34.0 °F - 34.0 °F 100% 30.40 in 0.5 mi Calm Calm - N/A Fog Fog
3:17 PM 33.8 °F - 33.8 °F 100% 30.41 in 0.5 mi Calm Calm - N/A Fog Fog
3:33 PM 33.8 °F - 33.8 °F 100% 30.41 in 0.8 mi Calm Calm - N/A   Overcast
3:37 PM 33.8 °F - 33.8 °F 100% 30.41 in 2.0 mi Calm Calm - N/A   Overcast
3:39 PM 33.8 °F - 33.8 °F 100% 30.41 in 1.2 mi Calm Calm - N/A   Overcast
3:43 PM 33.8 °F - 33.8 °F 100% 30.41 in 0.5 mi Calm Calm - N/A Fog Fog
3:53 PM 33.1 °F - 33.1 °F 100% 30.42 in 0.5 mi Calm Calm - N/A Fog Fog
4:00 PM 33.8 °F - 33.8 °F 100% 30.41 in 0.5 mi Calm Calm - N/A Fog Fog
4:08 PM 33.8 °F - 33.8 °F 100% 30.43 in 0.8 mi Calm Calm - N/A   Mist
4:49 PM 33.8 °F 30.8 °F 33.8 °F 100% 30.44 in 0.8 mi SSE 3.5 mph - N/A   Mist
4:53 PM 33.1 °F - 33.1 °F 100% 30.44 in 0.2 mi Calm Calm - N/A Fog Fog
5:04 PM 33.8 °F - 33.8 °F 100% 30.43 in 0.2 mi Calm Calm - N/A Fog Fog
5:11 PM 33.8 °F 30.8 °F 33.8 °F 100% 30.44 in 0.2 mi SE 3.5 mph - N/A Fog Fog
5:37 PM 33.8 °F 30.8 °F 33.8 °F 100% 30.43 in 0.5 mi SSE 3.5 mph - N/A Fog Fog
5:53 PM 33.1 °F - 33.1 °F 100% 30.45 in 0.5 mi Calm Calm - N/A Fog Fog
6:00 PM 33.8 °F 30.8 °F 33.8 °F 100% 30.44 in 1.0 mi East 3.5 mph - N/A   Overcast
6:09 PM 33.8 °F - 33.8 °F 100% 30.45 in 1.0 mi Calm Calm - N/A   Overcast
6:53 PM 33.1 °F - 33.1 °F 100% 30.46 in 1.0 mi Calm Calm - N/A   Overcast
6:55 PM 33.8 °F - 33.8 °F 100% 30.46 in 0.8 mi Calm Calm - N/A Fog Fog
7:04 PM 33.8 °F - 33.8 °F 100% 30.46 in 0.5 mi Calm Calm - N/A Fog Fog
7:33 PM 33.8 °F - 33.8 °F 100% 30.47 in 0.5 mi Calm Calm - N/A Fog Fog
7:45 PM 33.8 °F 30.8 °F 33.8 °F 100% 30.47 in 0.5 mi East 3.5 mph - N/A Fog Fog
8:01 PM 33.8 °F 30.8 °F 33.8 °F 100% 30.47 in 0.5 mi East 3.5 mph - N/A Fog Fog
8:28 PM 33.8 °F - 33.8 °F 100% 30.48 in 0.5 mi Calm Calm - N/A Fog Fog
8:38 PM 33.8 °F 30.8 °F 33.8 °F 100% 30.48 in 0.5 mi East 3.5 mph - N/A Fog Fog
8:53 PM 33.1 °F - 33.1 °F 100% 30.48 in 0.5 mi Calm Calm - N/A Fog Fog
10:53 PM 33.8 °F - 33.8 °F 100% 30.51 in 0.5 mi Calm Calm - N/A Fog Fog
11:00 PM 33.8 °F - 33.8 °F 100% 30.50 in 0.5 mi Calm Calm - N/A Fog Fog
11:53 PM 33.1 °F - 33.1 °F 100% 30.53 in 2.0 mi Calm Calm - N/A   Overcast